Torna al catalogo

DELTA 1 DEB

AttivoSSO
NORAD 7021·DEBRIS·🇺🇸 United States

Lanciato Nov 6, 1973 da Vandenberg Space Force Base

Loading…

Prossimi Passaggi (prossime 24 ore)

TLE

AggiornatoSource: Space-Track

Epoca: Sep 14, 2026, 14:20 UTC

1 07021U 73086M   26257.59733135  .00000340  00000-0  29414-2 0  9991
2 07021 101.6801 292.2298 0183547  58.5738  94.1022 12.33186549360309

Traccia DELTA 1 DEB in tempo reale con AllMySat

Download on the App Store